Content
SEND FEEDBACK

Daily
Averages
Monthly
Summary
United States of America

PLAINFIELD, MASSACHUSETTS


Home > North America > United States > Massachusetts
Elevation: 1620 feet     Latitude: 42 31N     Longitude: 072 55W

WEATHER
 
SELECT A DAY
Number of Records: 200,070;   Date Range: 10/28/95 - 10/29/14
 
SHARE

PRINT THIS DATA

[ ← Previous Day ]
WEATHER ALMANAC - JULY 13, 2014
[ Next Day → ]
[ °C ]   °F
Weather ElementAverageHighLow
Temperature73 °F75.9 °F (2:52 pm)66 °F (8:59 am)
Dewpoint65.4 °F71.1 °F (4:52 pm)57.9 °F (1:52 pm)
Humidity77.3 %93 % (8:52 am)68 % (5:52 pm)
Barometer29.97 in30.09 in (6:52 am)29.86 in (2:52 pm)
Wind Speed6 mph13.8 mph (4:52 pm)
Wind Gust24.2 mph (4:52 pm)
Weather ElementAverage
Visibility8.9 mi
Wind DirectionESE (100.9 °)

Weather ElementTotal
Precipitation0.20 in
Cooling Degree Days6 (Base 65)
Growing Degree Days21 (Base 50)
Averaged from 33 records on July 13, 2014
WEATHER CONDITIONS BREAKOUT
WIND DIRECTION BREAKOUT
WEATHER BY HOUR - JULY 13, 2014
[ °C ]   °F
Local TimeTemperatureDewpointHumidityBarometerVisibilityWind DirectionWind SpeedGust SpeedPrecipitationEventsConditions
12:52 AM70.0 °F60.1 °F71 %30.09 in10.0 miSSE (150°)4.6 mphClear
1:52 AM69.1 °F59.0 °F70 %30.08 in10.0 miVariable4.6 mphClear
2:52 AM69.1 °F57.9 °F68 %30.06 in10.0 miSE (140°)4.6 mphClear
3:52 AM68.0 °F57.9 °F70 %30.06 in10.0 miVariable5.8 mphClear
4:52 AM66.0 °F59.0 °F78 %30.06 in10.0 miSSW (210°)4.6 mphClear
5:52 AM66.9 °F59.0 °F76 %30.06 in10.0 miNE (40°)5.8 mphClear
6:52 AM68.0 °F60.1 °F76 %30.04 in10.0 miEast (100°)5.8 mphClear
7:27 AM69.1 °F61.0 °F75 %30.04 in10.0 miEast (80°)5.8 mphPartly Cloudy
7:52 AM71.1 °F62.1 °F73 %30.03 in10.0 miVariable3.5 mphPartly Cloudy
8:52 AM71.1 °F64.0 °F78 %30.02 in10.0 miVariable3.5 mphOvercast
9:52 AM75.0 °F64.9 °F71 %30.00 in10.0 miVariable4.6 mphScattered Clouds
10:33 AM75.9 °F66.0 °F71 %30.00 in10.0 miSSW (200°)10.4 mph17.3 mphMostly Cloudy
10:52 AM75.0 °F66.0 °F73 %29.99 in10.0 miSW (230°)8.1 mph17.3 mphMostly Cloudy
11:14 AM75.9 °F66.9 °F74 %30.00 in10.0 miSSW (210°)10.4 mph20.7 mphScattered Clouds
11:49 AM75.2 °F66.2 °F73 %30.00 in10.0 miSSW (200°)10.4 mph20.7 mphMostly Cloudy
11:52 AM75.9 °F66.0 °F71 %29.99 in10.0 miSW (220°)12.7 mph20.7 mphMostly Cloudy
12:07 PM75.0 °F66.0 °F73 %29.99 in10.0 miSW (220°)13.8 mph21.9 mphScattered Clouds
12:22 PM75.0 °F66.9 °F76 %30.00 in10.0 miSW (220°)13.8 mph20.7 mphMostly Cloudy
12:52 PM75.9 °F66.9 °F74 %29.97 in10.0 miVariable5.8 mph21.9 mphMostly Cloudy
1:52 PM75.0 °F66.9 °F76 %29.97 in10.0 miVariable4.6 mph19.6 mphOvercast
2:41 PM75.0 °F68.0 °F79 %29.96 in8.0 miVariable4.6 mph24.2 mphOvercast
2:52 PM75.9 °F66.9 °F74 %29.94 in9.0 miSW (220°)9.2 mph20.7 mphMostly Cloudy
3:52 PM75.9 °F68.0 °F76 %29.92 in7.0 miSW (220°)9.2 mph18.4 mph0.00 inRainLight Rain
4:52 PM75.9 °F68.0 °F76 %29.90 in9.0 miWSW (240°)10.4 mph17.3 mph0.02 inMostly Cloudy
5:52 PM75.9 °F69.1 °F79 %29.88 in6.0 miVariable3.5 mph0.00 inRainLight Rain
6:28 PM73.0 °F71.1 °F93 %29.88 in2.5 miEast (100°)5.8 mph0.04 inRainRain
6:42 PM73.0 °F71.1 °F93 %29.87 in3.0 miCalm0.06 inRainLight Rain
6:52 PM73.9 °F70.0 °F87 %29.87 in4.0 miCalm0.06 inRainLight Rain
7:52 PM73.0 °F70.0 °F90 %29.86 in6.0 miCalm0.02 inMist
8:52 PM72.0 °F69.1 °F91 %29.86 in10.0 miNNW (330°)4.6 mphOvercast
9:52 PM73.9 °F68.0 °F82 %29.88 in10.0 miCalmMostly Cloudy
10:52 PM73.9 °F68.0 °F82 %29.88 in10.0 miVariable3.5 mphMostly Cloudy
11:52 PM75.0 °F69.1 °F82 %29.87 in10.0 miVariable3.5 mphPartly Cloudy
Hourly data recorded from KAQW, located miles away from Plainfield, Massachusetts







STORIES FROM OUR PARTNERS